Content
SEND FEEDBACK

Daily
Averages
Monthly
Summary
United States of America

BELVIDERE, ILLINOIS


Home > North America > United States > Illinois
Elevation: 850 feet     Latitude: 42 18N     Longitude: 088 59W

WEATHER
 
SELECT A DAY
Number of Records: 199,475;   Date Range: 1/1/95 - 8/12/14
 
SHARE

PRINT THIS DATA

[ ← Previous Day ]
WEATHER ALMANAC - JANUARY 31, 2013
[ Next Day → ]
[ °C ]   °F
Weather ElementAverageHighLow
Temperature10.2 °F17.6 °F (3:18 am)1.4 °F (10:36 pm)
Dewpoint2.3 °F10.4 °F (3:18 am)-6 °F (10:54 pm)
Humidity70.3 %79 % (1:49 pm)62 % (2:03 pm)
Barometer29.95 in30.25 in (11:54 pm)29.72 in (3:18 am)
Wind Speed17 mph20.7 mph (8:54 am)
Wind Gust31.1 mph (1:54 am)
Weather ElementAverage
Visibility8 mi
Wind DirectionWNW (288.9 °)

Weather ElementTotal
Precipitation---
Heating Degree Days55.5 (Base 65)
Averaged from 35 records on January 31, 2013
WEATHER CONDITIONS BREAKOUT
WIND DIRECTION BREAKOUT
WEATHER BY HOUR - JANUARY 31, 2013
[ °C ]   °F
Local TimeTemperatureDewpointHumidityBarometerVisibilityWind DirectionWind SpeedGust SpeedPrecipitationEventsConditions
1:54 AM17.1 °F7.0 °F65 %29.75 in10.0 miWNW (300°)19.6 mph31.1 mphOvercast
2:54 AM17.1 °F10.0 °F74 %29.75 in2.0 miWNW (290°)13.8 mph0.00 inSnowLight Snow
3:18 AM17.6 °F10.4 °F73 %29.72 in3.0 miWest (280°)15.0 mph23.0 mph0.00 inSnowLight Snow
3:54 AM16.0 °F10.0 °F77 %29.77 in4.0 miWest (280°)15.0 mph25.3 mph0.00 inSnowLight Snow
4:14 AM15.8 °F8.6 °F73 %29.74 in7.0 miWest (280°)13.8 mph21.9 mph0.00 inSnowLight Snow
4:54 AM16.0 °F9.0 °F74 %29.78 in7.0 miWest (270°)16.1 mph24.2 mph0.00 inSnowLight Snow
5:54 AM14.0 °F8.1 °F77 %29.79 in8.0 miWest (280°)15.0 mph23.0 mph0.00 inSnowLight Snow
6:54 AM12.9 °F6.1 °F74 %29.82 in10.0 miWest (280°)16.1 mph21.9 mph0.00 inMostly Cloudy
7:31 AM12.2 °F5.0 °F73 %29.81 in10.0 miWest (280°)13.8 mphOvercast
7:54 AM10.9 °F5.0 °F77 %29.86 in10.0 miWest (280°)19.6 mph24.2 mphMostly Cloudy
8:31 AM10.4 °F3.2 °F73 %29.84 in10.0 miWNW (290°)17.3 mph23.0 mphScattered Clouds
8:54 AM10.0 °F3.0 °F73 %29.88 in10.0 miWest (280°)20.7 mph27.6 mphPartly Cloudy
9:54 AM10.9 °F3.9 °F73 %29.90 in10.0 miWest (280°)18.4 mph23.0 mphPartly Cloudy
10:54 AM12.0 °F3.0 °F67 %29.93 in10.0 miWNW (300°)15.0 mph25.3 mphScattered Clouds
11:44 AM10.4 °F1.4 °F67 %29.90 in10.0 miWest (280°)19.6 mphMostly Cloudy
11:54 AM12.0 °F3.9 °F70 %29.94 in10.0 miWest (280°)18.4 mphMostly Cloudy
12:45 PM12.2 °F3.2 °F67 %29.91 in5.0 miWest (280°)12.7 mph0.00 inSnowLight Snow
12:54 PM12.0 °F3.0 °F67 %29.96 in5.0 miWNW (290°)16.1 mph21.9 mph0.00 inSnowLight Snow
1:19 PM12.2 °F3.2 °F67 %29.92 in2.5 miWNW (290°)13.8 mph0.00 inSnowLight Snow
1:26 PM12.2 °F3.2 °F67 %29.92 in5.0 miWNW (300°)18.4 mph24.2 mph0.00 inSnowLight Snow
1:49 PM10.4 °F5.0 °F79 %29.92 in1.5 miWNW (300°)20.7 mph26.5 mph0.00 inSnowLight Snow
1:54 PM10.9 °F3.0 °F70 %29.96 in5.0 miWNW (290°)19.6 mph27.6 mph0.00 inSnowLight Snow
2:03 PM12.2 °F1.4 °F62 %29.93 in7.0 miWNW (300°)18.4 mph27.6 mph0.00 inSnowLight Snow
2:54 PM10.9 °F1.0 °F64 %29.99 in9.0 miNW (310°)18.4 mph29.9 mph0.00 inSnowLight Snow
3:54 PM10.0 °F1.0 °F67 %30.01 in9.0 miWNW (290°)20.7 mph27.6 mph0.00 inMostly Cloudy
4:54 PM8.1 °F-0.9 °F67 %30.04 in10.0 miWNW (300°)16.1 mph28.8 mph0.00 inScattered Clouds
5:54 PM7.0 °F-2.0 °F67 %30.08 in10.0 miWNW (290°)19.6 mph25.3 mph0.00 inScattered Clouds
6:54 PM6.1 °F-2.0 °F69 %30.11 in10.0 miWNW (300°)19.6 mph28.8 mphScattered Clouds
7:54 PM3.9 °F-4.0 °F70 %30.15 in9.0 miWNW (290°)17.3 mph31.1 mphMostly Cloudy
8:54 PM3.0 °F-4.0 °F73 %30.19 in10.0 miWNW (290°)18.4 mphMostly Cloudy
9:39 PM3.2 °F-5.8 °F66 %30.15 in10.0 miWNW (300°)16.1 mph24.2 mphMostly Cloudy
9:54 PM3.0 °F-5.1 °F69 %30.21 in10.0 miWNW (290°)17.3 mphMostly Cloudy
10:36 PM1.4 °F-5.8 °F72 %30.17 in10.0 miWNW (290°)16.1 mphPartly Cloudy
10:54 PM1.9 °F-6.0 °F69 %30.22 in10.0 miWNW (290°)13.8 mphPartly Cloudy
11:54 PM1.9 °F-6.0 °F69 %30.25 in10.0 miWNW (290°)13.8 mphPartly Cloudy
Hourly data recorded from KRFD, located miles away from Belvidere, Illinois







STORIES FROM OUR PARTNERS